Time,TemperatureF,DewpointF,PressureIn,WindDirection,WindDirectionDegrees,WindSpeedMPH,WindSpeedGustMPH,Humidity,HourlyPrecipIn,Conditions,Clouds,dailyrainin,SoftwareType,DateUTC
2013-02-19 00:00:00,23.7,12.9,0.00,SSW,198,0.0,0.0,63,0.00,CLR,CLR,0.00,WeatherDisplay:10.37,2013-02-19 05:00:00,
2013-02-19 00:01:00,23.8,13.0,0.00,SSW,198,0.0,0.0,63,0.00,CLR,CLR,0.00,WeatherDisplay:10.37,2013-02-19 05:01:00,
2013-02-19 00:06:00,23.7,12.9,0.00,SW,230,2.3,2.3,63,0.00,CLR,CLR,0.00,WeatherDisplay:10.37,2013-02-19 05:06:00,
2013-02-19 00:11:00,23.6,12.8,0.00,South,171,3.5,3.5,63,0.00,CLR,CLR,0.00,WeatherDisplay:10.37,2013-02-19 05:11:00,
2013-02-19 00:17:00,23.6,12.8,0.00,SW,220,0.0,0.0,63,0.00,CLR,CLR,0.00,WeatherDisplay:10.37,2013-02-19 05:17:00,
2013-02-19 00:22:00,23.6,13.2,0.00,SW,220,0.0,0.0,64,0.00,CLR,CLR,0.00,WeatherDisplay:10.37,2013-02-19 05:22:00,
2013-02-19 00:27:00,23.5,13.1,0.00,SW,220,0.0,0.0,64,0.00,CLR,CLR,0.00,WeatherDisplay:10.37,2013-02-19 05:27:00,
2013-02-19 00:32:00,23.4,13.0,0.00,SW,220,0.0,0.0,64,0.00,CLR,CLR,0.00,WeatherDisplay:10.37,2013-02-19 05:32:00,
2013-02-19 00:37:00,23.4,13.4,0.00,SW,220,0.0,0.0,65,0.00,CLR,CLR,0.00,WeatherDisplay:10.37,2013-02-19 05:37:00,
2013-02-19 00:43:00,23.3,13.3,0.00,SW,220,0.0,0.0,65,0.00,CLR,CLR,0.00,WeatherDisplay:10.37,2013-02-19 05:43:00,
2013-02-19 00:48:00,23.3,13.6,0.00,SW,220,0.0,0.0,66,0.00,CLR,CLR,0.00,WeatherDisplay:10.37,2013-02-19 05:48:00,
2013-02-19 00:53:00,23.2,13.5,0.00,WSW,237,0.0,0.0,66,0.00,CLR,CLR,0.00,WeatherDisplay:10.37,2013-02-19 05:53:00,
2013-02-19 00:59:00,23.2,13.5,0.00,WSW,237,0.0,0.0,66,0.00,CLR,CLR,0.00,WeatherDisplay:10.37,2013-02-19 05:59:00,
2013-02-19 01:04:00,23.2,13.5,0.00,SW,215,1.6,1.6,66,0.00,CLR,CLR,0.00,WeatherDisplay:10.37,2013-02-19 06:04:00,
2013-02-19 01:09:00,23.3,13.6,0.00,SSW,192,0.0,0.0,66,0.00,CLR,CLR,0.00,WeatherDisplay:10.37,2013-02-19 06:09:00,
2013-02-19 01:14:00,23.3,13.6,0.00,SSW,192,0.0,0.0,66,0.00,CLR,CLR,0.00,WeatherDisplay:10.37,2013-02-19 06:14:00,
2013-02-19 01:20:00,23.3,13.6,0.00,SSW,192,0.0,0.0,66,0.00,CLR,CLR,0.00,WeatherDisplay:10.37,2013-02-19 06:20:00,
2013-02-19 01:25:00,23.4,13.7,0.00,WSW,241,0.0,0.0,66,0.00,CLR,CLR,0.00,WeatherDisplay:10.37,2013-02-19 06:25:00,
2013-02-19 01:30:00,23.4,13.7,0.00,WSW,241,0.0,0.0,66,0.00,CLR,CLR,0.00,WeatherDisplay:10.37,2013-02-19 06:30:00,
2013-02-19 01:35:00,23.4,13.7,0.00,SW,223,3.5,3.5,66,0.00,CLR,CLR,0.00,WeatherDisplay:10.37,2013-02-19 06:35:00,
2013-02-19 01:40:00,23.4,13.7,0.00,WSW,247,0.9,0.0,66,0.00,CLR,CLR,0.00,WeatherDisplay:10.37,2013-02-19 06:40:00,
2013-02-19 01:46:00,23.4,13.7,0.00,SW,217,0.0,0.0,66,0.00,CLR,CLR,0.00,WeatherDisplay:10.37,2013-02-19 06:46:00,
2013-02-19 01:51:00,23.4,14.0,0.00,SW,217,0.0,0.0,67,0.00,CLR,CLR,0.00,WeatherDisplay:10.37,2013-02-19 06:51:00,
2013-02-19 01:56:00,23.4,14.0,0.00,SW,217,0.0,0.0,67,0.00,CLR,CLR,0.00,WeatherDisplay:10.37,2013-02-19 06:56:00,
2013-02-19 02:01:00,23.4,14.4,0.00,SW,232,0.0,0.0,68,0.00,CLR,CLR,0.00,WeatherDisplay:10.37,2013-02-19 07:01:00,
2013-02-19 02:07:00,23.4,14.0,0.00,WSW,246,2.3,2.3,67,0.00,CLR,CLR,0.00,WeatherDisplay:10.37,2013-02-19 07:07:00,
2013-02-19 02:12:00,23.3,14.0,0.00,SW,220,0.0,0.0,67,0.00,CLR,CLR,0.00,WeatherDisplay:10.37,2013-02-19 07:12:00,
2013-02-19 02:17:00,23.4,14.0,0.00,SW,220,0.0,0.0,67,0.00,CLR,CLR,0.00,WeatherDisplay:10.37,2013-02-19 07:17:00,
2013-02-19 02:22:00,23.4,14.4,0.00,SW,220,0.0,0.0,68,0.00,CLR,CLR,0.00,WeatherDisplay:10.37,2013-02-19 07:22:00,
2013-02-19 02:27:00,23.2,14.2,0.00,SW,220,0.0,0.0,68,0.00,CLR,CLR,0.00,WeatherDisplay:10.37,2013-02-19 07:27:00,
2013-02-19 02:33:00,23.2,14.5,0.00,SW,220,0.0,0.0,69,0.00,CLR,CLR,0.00,WeatherDisplay:10.37,2013-02-19 07:33:00,
2013-02-19 02:38:00,23.1,14.8,0.00,SW,220,0.0,0.0,70,0.00,CLR,CLR,0.00,WeatherDisplay:10.37,2013-02-19 07:38:00,
2013-02-19 02:43:00,23.0,14.7,0.00,SW,220,0.0,0.0,70,0.00,CLR,CLR,0.00,WeatherDisplay:10.37,2013-02-19 07:43:00,
2013-02-19 02:48:00,23.0,15.0,0.00,SW,220,0.0,0.0,71,0.00,CLR,CLR,0.00,WeatherDisplay:10.37,2013-02-19 07:48:00,
2013-02-19 02:53:00,22.9,14.9,0.00,SW,220,0.0,0.0,71,0.00,CLR,CLR,0.00,WeatherDisplay:10.37,2013-02-19 07:53:00,
2013-02-19 02:59:00,22.8,14.8,0.00,SW,220,0.0,0.0,71,0.00,CLR,CLR,0.00,WeatherDisplay:10.37,2013-02-19 07:59:00,
2013-02-19 03:04:00,22.7,15.0,0.00,SW,220,0.0,0.0,72,0.00,CLR,CLR,0.00,WeatherDisplay:10.37,2013-02-19 08:04:00,
2013-02-19 03:09:00,22.5,14.5,0.00,SW,220,0.0,0.0,71,0.00,CLR,CLR,0.00,WeatherDisplay:10.37,2013-02-19 08:09:00,
2013-02-19 03:14:00,22.4,14.7,0.00,SW,220,0.0,0.0,72,0.00,CLR,CLR,0.00,WeatherDisplay:10.37,2013-02-19 08:14:00,
2013-02-19 03:20:00,22.4,14.7,0.00,SW,220,0.0,0.0,72,0.00,CLR,CLR,0.00,WeatherDisplay:10.37,2013-02-19 08:20:00,
2013-02-19 03:25:00,22.3,14.6,0.00,SW,220,0.0,0.0,72,0.00,CLR,CLR,0.00,WeatherDisplay:10.37,2013-02-19 08:25:00,
2013-02-19 03:30:00,22.2,14.9,0.00,SW,220,0.0,0.0,73,0.00,CLR,CLR,0.00,WeatherDisplay:10.37,2013-02-19 08:30:00,
2013-02-19 03:35:00,22.2,14.9,0.00,SW,220,0.0,0.0,73,0.00,CLR,CLR,0.00,WeatherDisplay:10.37,2013-02-19 08:35:00,
2013-02-19 03:41:00,22.1,14.8,0.00,SW,220,0.0,0.0,73,0.00,CLR,CLR,0.00,WeatherDisplay:10.37,2013-02-19 08:41:00,
2013-02-19 03:46:00,22.1,15.1,0.00,SW,220,0.0,0.0,74,0.00,CLR,CLR,0.00,WeatherDisplay:10.37,2013-02-19 08:46:00,
2013-02-19 03:51:00,22.1,15.1,0.00,SW,220,0.0,0.0,74,0.00,CLR,CLR,0.00,WeatherDisplay:10.37,2013-02-19 08:51:00,
2013-02-19 03:56:00,22.1,15.1,0.00,SW,220,0.0,0.0,74,0.00,CLR,CLR,0.00,WeatherDisplay:10.37,2013-02-19 08:56:00,
2013-02-19 04:01:00,22.1,15.1,0.00,SW,220,0.0,0.0,74,0.00,CLR,CLR,0.00,WeatherDisplay:10.37,2013-02-19 09:01:00,
2013-02-19 04:07:00,22.2,15.2,0.00,SW,220,0.0,0.0,74,0.00,CLR,CLR,0.00,WeatherDisplay:10.37,2013-02-19 09:07:00,
2013-02-19 04:12:00,22.2,15.5,0.00,SW,220,0.0,0.0,75,0.00,CLR,CLR,0.00,WeatherDisplay:10.37,2013-02-19 09:12:00,
2013-02-19 04:17:00,22.2,15.5,0.00,SW,220,0.0,0.0,75,0.00,CLR,CLR,0.00,WeatherDisplay:10.37,2013-02-19 09:17:00,
2013-02-19 04:22:00,22.3,15.6,0.00,SW,220,0.0,0.0,75,0.00,CLR,CLR,0.00,WeatherDisplay:10.37,2013-02-19 09:22:00,
2013-02-19 04:27:00,22.3,15.6,0.00,SW,220,0.0,0.0,75,0.00,CLR,CLR,0.00,WeatherDisplay:10.37,2013-02-19 09:27:00,
2013-02-19 04:32:00,22.3,15.6,0.00,SW,220,0.0,0.0,75,0.00,CLR,CLR,0.00,WeatherDisplay:10.37,2013-02-19 09:32:00,
2013-02-19 04:38:00,22.5,15.8,0.00,SW,220,0.0,0.0,75,0.00,CLR,CLR,0.00,WeatherDisplay:10.37,2013-02-19 09:38:00,
2013-02-19 04:43:00,22.5,15.8,0.00,SW,220,0.0,0.0,75,0.00,CLR,CLR,0.00,WeatherDisplay:10.37,2013-02-19 09:43:00,
2013-02-19 04:48:00,22.6,15.9,0.00,SW,220,0.0,0.0,75,0.00,CLR,CLR,0.00,WeatherDisplay:10.37,2013-02-19 09:48:00,
2013-02-19 04:53:00,22.6,15.9,0.00,SW,220,0.0,0.0,75,0.00,CLR,CLR,0.00,WeatherDisplay:10.37,2013-02-19 09:53:00,
2013-02-19 04:58:00,22.7,16.0,0.00,SW,220,0.0,0.0,75,0.00,CLR,CLR,0.00,WeatherDisplay:10.37,2013-02-19 09:58:00,
2013-02-19 05:04:00,22.6,15.9,0.00,SW,220,0.0,0.0,75,0.00,CLR,CLR,0.00,WeatherDisplay:10.37,2013-02-19 10:04:00,
2013-02-19 05:09:00,22.7,16.0,0.00,SW,220,0.0,0.0,75,0.00,CLR,CLR,0.00,WeatherDisplay:10.37,2013-02-19 10:09:00,
2013-02-19 05:14:00,22.7,16.0,0.00,SW,220,0.0,0.0,75,0.00,CLR,CLR,0.00,WeatherDisplay:10.37,2013-02-19 10:14:00,
2013-02-19 05:20:00,22.6,15.9,0.00,SW,220,0.0,0.0,75,0.00,CLR,CLR,0.00,WeatherDisplay:10.37,2013-02-19 10:20:00,
2013-02-19 05:25:00,22.7,16.0,0.00,SW,220,0.0,0.0,75,0.00,CLR,CLR,0.00,WeatherDisplay:10.37,2013-02-19 10:25:00,
2013-02-19 05:30:00,22.6,16.2,0.00,SW,220,0.0,0.0,76,0.00,CLR,CLR,0.00,WeatherDisplay:10.37,2013-02-19 10:30:00,
2013-02-19 05:35:00,22.7,16.3,0.00,SW,220,0.0,0.0,76,0.00,CLR,CLR,0.00,WeatherDisplay:10.37,2013-02-19 10:35:00,
2013-02-19 05:40:00,22.6,16.2,0.00,SW,220,0.0,0.0,76,0.00,CLR,CLR,0.00,WeatherDisplay:10.37,2013-02-19 10:40:00,
2013-02-19 05:46:00,22.7,16.3,0.00,SW,220,0.0,0.0,76,0.00,CLR,CLR,0.00,WeatherDisplay:10.37,2013-02-19 10:46:00,
2013-02-19 05:51:00,22.5,16.1,0.00,SW,220,0.0,0.0,76,0.00,CLR,CLR,0.00,WeatherDisplay:10.37,2013-02-19 10:51:00,
2013-02-19 05:56:00,22.5,16.1,0.00,SW,220,0.0,0.0,76,0.00,CLR,CLR,0.00,WeatherDisplay:10.37,2013-02-19 10:56:00,
2013-02-19 06:02:00,22.5,16.1,0.00,SW,220,0.0,0.0,76,0.00,CLR,CLR,0.00,WeatherDisplay:10.37,2013-02-19 11:02:00,
2013-02-19 06:07:00,22.5,16.4,0.00,SW,220,0.0,0.0,77,0.00,CLR,CLR,0.00,WeatherDisplay:10.37,2013-02-19 11:07:00,
2013-02-19 06:12:00,22.5,16.4,0.00,SW,220,0.0,0.0,77,0.00,CLR,CLR,0.00,WeatherDisplay:10.37,2013-02-19 11:12:00,
2013-02-19 06:17:00,22.4,16.3,0.00,SW,220,0.0,0.0,77,0.00,CLR,CLR,0.00,WeatherDisplay:10.37,2013-02-19 11:17:00,
2013-02-19 06:22:00,22.4,16.3,0.00,SW,220,0.0,0.0,77,0.00,CLR,CLR,0.00,WeatherDisplay:10.37,2013-02-19 11:22:00,
2013-02-19 06:28:00,22.3,16.2,0.00,SW,220,0.0,0.0,77,0.00,CLR,CLR,0.00,WeatherDisplay:10.37,2013-02-19 11:28:00,
2013-02-19 06:33:00,22.3,16.5,0.00,SW,220,0.0,0.0,78,0.00,CLR,CLR,0.00,WeatherDisplay:10.37,2013-02-19 11:33:00,
2013-02-19 06:38:00,22.2,16.4,0.00,SW,220,0.0,0.0,78,0.00,CLR,CLR,0.00,WeatherDisplay:10.37,2013-02-19 11:38:00,
2013-02-19 06:43:00,22.3,16.5,0.00,SW,220,0.0,0.0,78,0.00,CLR,CLR,0.00,WeatherDisplay:10.37,2013-02-19 11:43:00,
2013-02-19 06:49:00,22.2,16.4,0.00,SW,220,0.0,0.0,78,0.00,CLR,CLR,0.00,WeatherDisplay:10.37,2013-02-19 11:49:00,
2013-02-19 06:54:00,22.1,16.3,0.00,SW,220,0.0,0.0,78,0.00,CLR,CLR,0.00,WeatherDisplay:10.37,2013-02-19 11:54:00,
2013-02-19 06:59:00,22.1,16.3,0.00,SW,220,0.0,0.0,78,0.00,CLR,CLR,0.00,WeatherDisplay:10.37,2013-02-19 11:59:00,
2013-02-19 07:04:00,22.1,16.3,0.00,SW,220,0.0,0.0,78,0.00,CLR,CLR,0.00,WeatherDisplay:10.37,2013-02-19 12:04:00,
2013-02-19 07:09:00,22.0,16.2,0.00,SW,220,0.0,0.0,78,0.00,CLR,CLR,0.00,WeatherDisplay:10.37,2013-02-19 12:09:00,
2013-02-19 07:14:00,22.0,16.2,0.00,SW,220,0.0,0.0,78,0.00,CLR,CLR,0.00,WeatherDisplay:10.37,2013-02-19 12:14:00,
2013-02-19 07:19:00,22.1,16.6,0.00,SW,220,0.0,0.0,79,0.00,CLR,CLR,0.00,WeatherDisplay:10.37,2013-02-19 12:19:00,
2013-02-19 07:24:00,22.1,16.6,0.00,SW,220,0.0,0.0,79,0.00,CLR,CLR,0.00,WeatherDisplay:10.37,2013-02-19 12:24:00,
2013-02-19 07:30:00,22.1,16.6,0.00,SW,220,0.0,0.0,79,0.00,CLR,CLR,0.00,WeatherDisplay:10.37,2013-02-19 12:30:00,
2013-02-19 07:35:00,22.2,16.7,0.00,SW,220,0.0,0.0,79,0.00,CLR,CLR,0.00,WeatherDisplay:10.37,2013-02-19 12:35:00,
2013-02-19 07:40:00,22.1,16.6,0.00,SW,220,0.0,0.0,79,0.00,CLR,CLR,0.00,WeatherDisplay:10.37,2013-02-19 12:40:00,
2013-02-19 07:45:00,22.2,16.7,0.00,SW,220,0.0,0.0,79,0.00,CLR,CLR,0.00,WeatherDisplay:10.37,2013-02-19 12:45:00,
2013-02-19 07:50:00,22.3,16.8,0.00,SW,220,0.0,0.0,79,0.00,CLR,CLR,0.00,WeatherDisplay:10.37,2013-02-19 12:50:00,
2013-02-19 07:55:00,22.4,16.9,0.00,SW,220,0.0,0.0,79,0.00,CLR,CLR,0.00,WeatherDisplay:10.37,2013-02-19 12:55:00,
2013-02-19 08:01:00,22.5,17.0,0.00,SW,220,0.0,0.0,79,0.00,CLR,CLR,0.00,WeatherDisplay:10.37,2013-02-19 13:01:00,
2013-02-19 08:06:00,22.6,17.1,0.00,SW,220,0.0,0.0,79,0.00,CLR,CLR,0.00,WeatherDisplay:10.37,2013-02-19 13:06:00,
2013-02-19 08:11:00,22.7,17.2,0.00,SW,220,0.0,0.0,79,0.00,CLR,CLR,0.00,WeatherDisplay:10.37,2013-02-19 13:11:00,
2013-02-19 08:16:00,22.9,17.7,0.00,SW,220,0.0,0.0,80,0.00,CLR,CLR,0.00,WeatherDisplay:10.37,2013-02-19 13:16:00,
2013-02-19 08:21:00,23.2,17.9,0.00,SW,220,0.0,0.0,80,0.00,CLR,CLR,0.00,WeatherDisplay:10.37,2013-02-19 13:21:00,
2013-02-19 08:27:00,23.7,18.1,0.00,SW,220,0.0,0.0,79,0.00,CLR,CLR,0.00,WeatherDisplay:10.37,2013-02-19 13:27:00,
2013-02-19 08:32:00,24.1,18.5,0.00,WSW,243,1.2,1.2,79,0.00,CLR,CLR,0.00,WeatherDisplay:10.37,2013-02-19 13:32:00,
2013-02-19 08:37:00,24.5,18.9,0.00,WSW,243,0.0,0.0,79,0.00,CLR,CLR,0.00,WeatherDisplay:10.37,2013-02-19 13:37:00,
2013-02-19 08:43:00,24.9,19.3,0.00,NNE,18,0.0,0.0,79,0.00,CLR,CLR,0.00,WeatherDisplay:10.37,2013-02-19 13:43:00,
2013-02-19 08:48:00,25.3,19.7,0.00,NNE,18,0.0,0.0,79,0.00,CLR,CLR,0.00,WeatherDisplay:10.37,2013-02-19 13:48:00,
2013-02-19 08:53:00,25.7,20.1,0.00,West,261,3.1,3.1,79,0.00,CLR,CLR,0.00,WeatherDisplay:10.37,2013-02-19 13:53:00,
2013-02-19 08:58:00,26.1,20.5,0.00,SW,233,1.2,0.0,79,0.00,CLR,CLR,0.00,WeatherDisplay:10.37,2013-02-19 13:58:00,
2013-02-19 09:03:00,26.5,21.2,0.00,SW,233,0.0,0.0,80,0.00,CLR,CLR,0.00,WeatherDisplay:10.37,2013-02-19 14:03:00,
2013-02-19 09:09:00,26.8,21.5,0.00,WSW,247,0.0,0.0,80,0.00,CLR,CLR,0.00,WeatherDisplay:10.37,2013-02-19 14:09:00,
2013-02-19 09:14:00,27.3,21.9,0.00,NNW,344,1.2,0.0,80,0.00,CLR,CLR,0.00,WeatherDisplay:10.37,2013-02-19 14:14:00,
2013-02-19 09:19:00,27.9,22.5,0.00,West,267,1.2,1.2,80,0.00,CLR,CLR,0.00,WeatherDisplay:10.37,2013-02-19 14:19:00,
2013-02-19 09:25:00,28.3,22.9,0.00,North,360,0.0,0.0,80,0.00,CLR,CLR,0.00,WeatherDisplay:10.37,2013-02-19 14:25:00,
2013-02-19 09:30:00,28.7,23.3,0.00,ESE,109,1.2,1.2,80,0.00,CLR,CLR,0.00,WeatherDisplay:10.37,2013-02-19 14:30:00,
2013-02-19 09:35:00,29.0,23.6,0.00,NNW,347,2.3,2.3,80,0.00,CLR,CLR,0.00,WeatherDisplay:10.37,2013-02-19 14:35:00,
2013-02-19 09:40:00,29.4,24.0,0.00,NNW,347,1.7,0.0,80,0.00,CLR,CLR,0.00,WeatherDisplay:10.37,2013-02-19 14:40:00,
2013-02-19 09:46:00,29.7,24.3,0.00,NNE,24,3.5,3.5,80,0.00,CLR,CLR,0.00,WeatherDisplay:10.37,2013-02-19 14:46:00,
2013-02-19 09:51:00,30.2,24.8,0.00,NE,47,0.0,0.0,80,0.00,CLR,CLR,0.00,WeatherDisplay:10.37,2013-02-19 14:51:00,
2013-02-19 09:56:00,30.7,25.3,0.00,SSW,195,2.1,2.1,80,0.00,CLR,CLR,0.00,WeatherDisplay:10.37,2013-02-19 14:56:00,
2013-02-19 10:02:00,31.1,25.7,0.00,NNW,328,0.0,0.0,80,0.00,CLR,CLR,0.00,WeatherDisplay:10.37,2013-02-19 15:02:00,
2013-02-19 10:07:00,31.5,26.0,0.00,WSW,256,0.0,0.0,80,0.00,CLR,CLR,0.00,WeatherDisplay:10.37,2013-02-19 15:07:00,
2013-02-19 10:12:00,32.0,26.5,0.00,WSW,257,1.2,0.0,80,0.00,CLR,CLR,0.00,WeatherDisplay:10.37,2013-02-19 15:12:00,
2013-02-19 10:18:00,32.4,26.9,0.00,WSW,257,0.0,0.0,80,0.00,CLR,CLR,0.00,WeatherDisplay:10.37,2013-02-19 15:18:00,
2013-02-19 10:23:00,32.9,27.4,0.00,South,188,2.3,2.3,80,0.00,CLR,CLR,0.00,WeatherDisplay:10.37,2013-02-19 15:23:00,
2013-02-19 10:28:00,33.5,28.0,0.00,WNW,282,1.2,1.2,80,0.00,CLR,CLR,0.00,WeatherDisplay:10.37,2013-02-19 15:28:00,
2013-02-19 10:34:00,34.2,28.7,0.00,NW,313,1.2,1.2,80,0.00,CLR,CLR,0.00,WeatherDisplay:10.37,2013-02-19 15:34:00,
2013-02-19 10:39:00,34.8,29.3,0.00,West,268,2.3,2.3,80,0.00,CLR,CLR,0.00,WeatherDisplay:10.37,2013-02-19 15:39:00,
2013-02-19 10:44:00,35.3,29.7,0.00,West,281,1.2,1.2,80,0.00,CLR,CLR,0.00,WeatherDisplay:10.37,2013-02-19 15:44:00,
2013-02-19 10:49:00,35.8,30.2,0.00,NNW,339,2.3,0.0,80,0.00,CLR,CLR,0.00,WeatherDisplay:10.37,2013-02-19 15:49:00,
2013-02-19 10:55:00,36.3,30.4,0.00,WNW,295,0.0,0.0,79,0.00,CLR,CLR,0.00,WeatherDisplay:10.37,2013-02-19 15:55:00,
2013-02-19 11:00:00,36.9,31.0,0.00,NW,311,0.0,0.0,79,0.00,CLR,CLR,0.00,WeatherDisplay:10.37,2013-02-19 16:00:00,
2013-02-19 11:05:00,37.3,31.4,0.00,NE,47,0.0,0.0,79,0.00,CLR,CLR,0.00,WeatherDisplay:10.37,2013-02-19 16:05:00,
2013-02-19 11:10:00,37.8,31.9,0.00,NW,305,2.3,2.3,79,0.00,CLR,CLR,0.00,WeatherDisplay:10.37,2013-02-19 16:10:00,
2013-02-19 11:15:00,38.2,32.3,0.00,West,272,3.5,3.5,79,0.00,CLR,CLR,0.00,WeatherDisplay:10.37,2013-02-19 16:15:00,
2013-02-19 11:21:00,38.5,32.2,0.00,WNW,285,1.2,1.2,78,0.00,CLR,CLR,0.00,WeatherDisplay:10.37,2013-02-19 16:21:00,
2013-02-19 11:26:00,38.8,32.5,0.00,West,268,0.0,0.1,78,0.00,CLR,CLR,0.00,WeatherDisplay:10.37,2013-02-19 16:26:00,
2013-02-19 11:31:00,39.3,33.0,0.00,SW,236,1.2,0.0,78,0.00,CLR,CLR,0.00,WeatherDisplay:10.37,2013-02-19 16:31:00,
2013-02-19 11:37:00,39.6,33.0,0.00,North,359,3.5,3.5,77,0.00,CLR,CLR,0.00,WeatherDisplay:10.37,2013-02-19 16:37:00,
2013-02-19 11:42:00,40.0,33.4,0.00,NNE,21,3.5,3.5,77,0.00,CLR,CLR,0.00,WeatherDisplay:10.37,2013-02-19 16:42:00,
2013-02-19 11:47:00,40.4,33.4,0.00,NNE,30,2.3,2.3,76,0.00,CLR,CLR,0.00,WeatherDisplay:10.37,2013-02-19 16:47:00,
2013-02-19 11:53:00,40.8,33.8,0.00,NW,318,1.2,1.2,76,0.00,CLR,CLR,0.00,WeatherDisplay:10.37,2013-02-19 16:53:00,
2013-02-19 11:58:00,41.2,34.2,0.00,NE,38,6.9,6.9,76,0.00,CLR,CLR,0.00,WeatherDisplay:10.37,2013-02-19 16:58:00,
2013-02-19 12:03:00,41.4,34.4,0.00,SW,226,3.5,3.5,76,0.00,CLR,CLR,0.00,WeatherDisplay:10.37,2013-02-19 17:03:00,
2013-02-19 12:09:00,41.7,34.7,0.00,NW,319,2.3,2.3,76,0.00,CLR,CLR,0.00,WeatherDisplay:10.37,2013-02-19 17:09:00,
2013-02-19 12:14:00,42.1,35.1,0.00,ENE,65,0.0,0.0,76,0.00,CLR,CLR,0.00,WeatherDisplay:10.37,2013-02-19 17:14:00,
2013-02-19 12:19:00,42.3,35.3,0.00,NNE,14,2.3,2.3,76,0.00,CLR,CLR,0.00,WeatherDisplay:10.37,2013-02-19 17:19:00,
2013-02-19 12:24:00,42.5,35.1,0.00,WSW,246,5.8,5.8,75,0.00,CLR,CLR,0.00,WeatherDisplay:10.37,2013-02-19 17:24:00,
2013-02-19 12:29:00,42.7,35.3,0.00,North,0,0.0,0.0,75,0.00,CLR,CLR,0.00,WeatherDisplay:10.37,2013-02-19 17:29:00,
2013-02-19 12:35:00,42.9,35.5,0.00,SW,226,1.2,1.2,75,0.00,CLR,CLR,0.00,WeatherDisplay:10.37,2013-02-19 17:35:00,
2013-02-19 12:40:00,43.2,35.8,0.00,NE,35,5.8,5.8,75,0.00,CLR,CLR,0.00,WeatherDisplay:10.37,2013-02-19 17:40:00,
2013-02-19 12:45:00,43.4,36.0,0.00,North,8,0.0,0.0,75,0.00,CLR,CLR,0.00,WeatherDisplay:10.37,2013-02-19 17:45:00,
2013-02-19 12:51:00,43.6,36.2,0.00,West,274,2.3,2.3,75,0.00,CLR,CLR,0.00,WeatherDisplay:10.37,2013-02-19 17:51:00,
2013-02-19 12:56:00,43.8,36.4,0.00,NNE,25,2.3,2.3,75,0.00,CLR,CLR,0.00,WeatherDisplay:10.37,2013-02-19 17:56:00,
2013-02-19 13:01:00,43.9,36.5,0.00,North,4,1.2,1.2,75,0.00,CLR,CLR,0.00,WeatherDisplay:10.37,2013-02-19 18:01:00,
2013-02-19 13:07:00,44.1,36.7,0.00,NW,308,0.0,0.0,75,0.00,CLR,CLR,0.00,WeatherDisplay:10.37,2013-02-19 18:07:00,
2013-02-19 13:12:00,44.3,36.5,0.00,East,89,3.5,3.5,74,0.00,CLR,CLR,0.00,WeatherDisplay:10.37,2013-02-19 18:12:00,
2013-02-19 13:17:00,44.4,36.6,0.00,NNE,21,0.0,0.0,74,0.00,CLR,CLR,0.00,WeatherDisplay:10.37,2013-02-19 18:17:00,
2013-02-19 13:22:00,44.6,36.5,0.00,ENE,62,2.4,2.4,73,0.00,CLR,CLR,0.00,WeatherDisplay:10.37,2013-02-19 18:22:00,
2013-02-19 13:28:00,44.8,36.0,0.00,WNW,296,6.9,6.9,71,0.00,CLR,CLR,0.00,WeatherDisplay:10.37,2013-02-19 18:28:00,
2013-02-19 13:33:00,45.0,36.2,0.00,NE,40,0.0,0.0,71,0.00,CLR,CLR,0.00,WeatherDisplay:10.37,2013-02-19 18:33:00,
2013-02-19 13:38:00,45.1,36.3,0.00,NNE,17,3.5,3.5,71,0.00,CLR,CLR,0.00,WeatherDisplay:10.37,2013-02-19 18:38:00,
2013-02-19 13:43:00,45.3,36.4,0.00,North,353,3.5,3.5,71,0.00,CLR,CLR,0.00,WeatherDisplay:10.37,2013-02-19 18:43:00,
2013-02-19 13:48:00,45.3,36.4,0.00,NNW,340,3.5,3.5,71,0.00,CLR,CLR,0.00,WeatherDisplay:10.37,2013-02-19 18:48:00,
2013-02-19 13:53:00,45.6,36.7,0.00,NNE,18,6.9,6.9,71,0.00,CLR,CLR,0.00,WeatherDisplay:10.37,2013-02-19 18:53:00,
2013-02-19 13:59:00,45.6,36.7,0.00,NE,55,2.3,2.3,71,0.00,CLR,CLR,0.00,WeatherDisplay:10.37,2013-02-19 18:59:00,
2013-02-19 14:04:00,45.6,37.1,0.00,NE,34,3.5,3.5,72,0.00,CLR,CLR,0.00,WeatherDisplay:10.37,2013-02-19 19:04:00,
2013-02-19 14:09:00,45.7,37.2,0.00,WNW,299,2.3,2.3,72,0.00,CLR,CLR,0.00,WeatherDisplay:10.37,2013-02-19 19:09:00,
2013-02-19 14:15:00,45.7,37.5,0.00,NE,44,3.5,3.5,73,0.00,CLR,CLR,0.00,WeatherDisplay:10.37,2013-02-19 19:15:00,
2013-02-19 14:20:00,45.7,37.5,0.00,NNE,17,6.9,6.9,73,0.00,CLR,CLR,0.00,WeatherDisplay:10.37,2013-02-19 19:20:00,
2013-02-19 14:25:00,45.7,37.9,0.00,NNE,32,5.8,5.8,74,0.00,CLR,CLR,0.00,WeatherDisplay:10.37,2013-02-19 19:25:00,
2013-02-19 14:31:00,45.7,37.9,0.00,WSW,254,0.0,0.0,74,0.00,CLR,CLR,0.00,WeatherDisplay:10.37,2013-02-19 19:31:00,
2013-02-19 14:36:00,45.6,37.8,0.00,NNW,339,1.2,1.2,74,0.00,CLR,CLR,0.00,WeatherDisplay:10.37,2013-02-19 19:36:00,
2013-02-19 14:41:00,45.7,37.9,0.00,NNE,31,4.6,4.6,74,0.00,CLR,CLR,0.00,WeatherDisplay:10.37,2013-02-19 19:41:00,
2013-02-19 14:46:00,45.7,38.2,0.00,WNW,282,4.6,4.6,75,0.00,CLR,CLR,0.00,WeatherDisplay:10.37,2013-02-19 19:46:00,
2013-02-19 14:51:00,45.7,38.2,0.00,NNE,30,2.3,2.3,75,0.00,CLR,CLR,0.00,WeatherDisplay:10.37,2013-02-19 19:51:00,
2013-02-19 14:56:00,45.7,38.2,0.00,West,281,0.0,0.5,75,0.00,CLR,CLR,0.00,WeatherDisplay:10.37,2013-02-19 19:56:00,
2013-02-19 15:01:00,45.8,38.3,0.00,NE,48,0.0,1.0,75,0.00,CLR,CLR,0.00,WeatherDisplay:10.37,2013-02-19 20:01:00,
2013-02-19 15:07:00,45.8,38.7,0.00,NNE,20,0.3,0.3,76,0.00,CLR,CLR,0.00,WeatherDisplay:10.37,2013-02-19 20:07:00,
2013-02-19 15:12:00,45.9,38.8,0.00,WNW,289,3.5,3.5,76,0.00,CLR,CLR,0.00,WeatherDisplay:10.37,2013-02-19 20:12:00,
2013-02-19 15:18:00,45.9,38.8,0.00,WSW,243,2.3,2.3,76,0.00,CLR,CLR,0.00,WeatherDisplay:10.37,2013-02-19 20:18:00,
2013-02-19 15:23:00,46.0,38.9,0.00,North,0,2.3,2.3,76,0.00,CLR,CLR,0.00,WeatherDisplay:10.37,2013-02-19 20:23:00,
2013-02-19 15:28:00,46.0,39.2,0.00,NE,34,4.6,4.6,77,0.00,CLR,CLR,0.00,WeatherDisplay:10.37,2013-02-19 20:28:00,
2013-02-19 15:33:00,45.9,39.1,0.00,ENE,61,4.6,4.6,77,0.00,CLR,CLR,0.00,WeatherDisplay:10.37,2013-02-19 20:33:00,
2013-02-19 15:38:00,46.0,39.5,0.00,NW,320,1.2,1.2,78,0.00,CLR,CLR,0.00,WeatherDisplay:10.37,2013-02-19 20:38:00,
2013-02-19 15:43:00,46.0,39.9,0.00,NNE,16,2.3,2.3,79,0.00,CLR,CLR,0.00,WeatherDisplay:10.37,2013-02-19 20:43:00,
2013-02-19 15:49:00,46.0,40.2,0.00,West,265,4.6,4.6,80,0.00,CLR,CLR,0.00,WeatherDisplay:10.37,2013-02-19 20:49:00,
2013-02-19 15:54:00,46.0,40.5,0.00,NW,306,3.5,3.5,81,0.00,CLR,CLR,0.00,WeatherDisplay:10.37,2013-02-19 20:54:00,
2013-02-19 15:59:00,45.8,40.6,0.00,WSW,251,3.5,3.5,82,0.00,CLR,CLR,0.00,WeatherDisplay:10.37,2013-02-19 20:59:00,
2013-02-19 16:04:00,45.7,40.8,0.00,ENE,61,2.3,2.7,83,0.00,CLR,CLR,0.00,WeatherDisplay:10.37,2013-02-19 21:04:00,
2013-02-19 16:10:00,45.6,41.0,0.00,North,11,1.4,1.4,84,0.00,CLR,CLR,0.00,WeatherDisplay:10.37,2013-02-19 21:10:00,
2013-02-19 16:15:00,45.4,41.2,0.00,NNE,25,0.0,0.0,85,0.00,CLR,CLR,0.00,WeatherDisplay:10.37,2013-02-19 21:15:00,
2013-02-19 16:20:00,45.3,41.4,0.00,South,171,0.0,0.0,86,0.00,CLR,CLR,0.00,WeatherDisplay:10.37,2013-02-19 21:20:00,
2013-02-19 16:25:00,45.2,41.3,0.00,NNE,28,2.3,2.3,86,0.00,CLR,CLR,0.00,WeatherDisplay:10.37,2013-02-19 21:25:00,
2013-02-19 16:30:00,45.1,41.5,0.00,West,268,2.3,2.3,87,0.00,CLR,CLR,0.00,WeatherDisplay:10.37,2013-02-19 21:30:00,
2013-02-19 16:35:00,44.9,41.6,0.00,NW,304,4.6,4.6,88,0.00,CLR,CLR,0.00,WeatherDisplay:10.37,2013-02-19 21:35:00,
2013-02-19 16:41:00,44.9,41.6,0.00,WSW,244,0.0,0.3,88,0.00,CLR,CLR,0.00,WeatherDisplay:10.37,2013-02-19 21:41:00,
2013-02-19 16:46:00,44.7,41.4,0.00,SW,224,0.0,0.0,88,0.00,CLR,CLR,0.00,WeatherDisplay:10.37,2013-02-19 21:46:00,
2013-02-19 16:51:00,44.6,41.6,0.00,SW,224,0.0,0.0,89,0.00,CLR,CLR,0.00,WeatherDisplay:10.37,2013-02-19 21:51:00,
2013-02-19 16:56:00,44.6,41.6,0.00,SW,224,0.0,0.0,89,0.00,CLR,CLR,0.00,WeatherDisplay:10.37,2013-02-19 21:56:00,
2013-02-19 17:02:00,44.4,41.4,0.00,NE,41,3.5,3.5,89,0.00,CLR,CLR,0.00,WeatherDisplay:10.37,2013-02-19 22:02:00,
2013-02-19 17:07:00,44.4,41.7,0.00,NE,41,0.0,0.0,90,0.00,CLR,CLR,0.00,WeatherDisplay:10.37,2013-02-19 22:07:00,
2013-02-19 17:12:00,44.3,41.6,0.00,NE,41,0.0,0.0,90,0.00,CLR,CLR,0.01,WeatherDisplay:10.37,2013-02-19 22:12:00,
2013-02-19 17:17:00,44.1,41.4,0.00,NE,41,0.0,0.0,90,0.01,RA,RA,0.01,WeatherDisplay:10.37,2013-02-19 22:17:00,
2013-02-19 17:23:00,44.1,41.6,0.00,NNE,24,1.0,1.0,91,0.01,CLR,CLR,0.01,WeatherDisplay:10.37,2013-02-19 22:23:00,
2013-02-19 17:28:00,43.9,41.4,0.00,NNE,32,0.0,0.0,91,0.01,CLR,CLR,0.01,WeatherDisplay:10.37,2013-02-19 22:28:00,
2013-02-19 17:33:00,43.8,41.6,0.00,North,360,0.0,0.0,92,0.01,CLR,CLR,0.01,WeatherDisplay:10.37,2013-02-19 22:33:00,
2013-02-19 17:38:00,43.8,41.6,0.00,North,360,0.0,0.0,92,0.01,CLR,CLR,0.01,WeatherDisplay:10.37,2013-02-19 22:38:00,
2013-02-19 17:43:00,43.7,41.5,0.00,NE,55,1.6,1.6,92,0.01,CLR,CLR,0.01,WeatherDisplay:10.37,2013-02-19 22:43:00,
2013-02-19 17:48:00,43.5,41.6,0.00,East,89,0.0,0.0,93,0.01,CLR,CLR,0.01,WeatherDisplay:10.37,2013-02-19 22:48:00,
2013-02-19 17:53:00,43.5,41.6,0.00,NE,40,0.0,0.0,93,0.01,CLR,CLR,0.01,WeatherDisplay:10.37,2013-02-19 22:53:00,
2013-02-19 17:58:00,43.4,41.8,0.00,NE,40,0.0,0.0,94,0.02,RA,RA,0.02,WeatherDisplay:10.37,2013-02-19 22:58:00,
2013-02-19 18:04:00,43.3,41.7,0.00,NE,40,0.0,0.0,94,0.03,RA,RA,0.03,WeatherDisplay:10.37,2013-02-19 23:04:00,
2013-02-19 18:09:00,43.2,41.6,0.00,NE,40,0.0,0.0,94,0.04,RA,RA,0.04,WeatherDisplay:10.37,2013-02-19 23:09:00,
2013-02-19 18:14:00,43.1,41.5,0.00,NE,40,0.0,0.0,94,0.03,RA,RA,0.04,WeatherDisplay:10.37,2013-02-19 23:14:00,
2013-02-19 18:20:00,43.1,41.5,0.00,ENE,58,0.0,0.0,94,0.04,RA,RA,0.05,WeatherDisplay:10.37,2013-02-19 23:20:00,
2013-02-19 18:25:00,42.8,41.5,0.00,ESE,114,1.2,1.2,95,0.04,RA,RA,0.05,WeatherDisplay:10.37,2013-02-19 23:25:00,
2013-02-19 18:30:00,42.8,41.5,0.00,East,88,0.0,0.1,95,0.04,CLR,CLR,0.05,WeatherDisplay:10.37,2013-02-19 23:30:00,
2013-02-19 18:36:00,42.7,41.4,0.00,NE,55,0.0,0.0,95,0.04,CLR,CLR,0.05,WeatherDisplay:10.37,2013-02-19 23:36:00,
2013-02-19 18:41:00,42.7,41.4,0.00,NE,55,0.0,0.0,95,0.04,CLR,CLR,0.05,WeatherDisplay:10.37,2013-02-19 23:41:00,
2013-02-19 18:46:00,42.6,41.3,0.00,NE,55,0.0,1.0,95,0.00,CLR,CLR,0.05,WeatherDisplay:10.37,2013-02-19 23:46:00,
2013-02-19 18:51:00,42.5,41.4,0.00,SSE,154,0.0,0.0,96,0.04,CLR,CLR,0.05,WeatherDisplay:10.37,2013-02-19 23:51:00,
2013-02-19 18:56:00,42.3,41.2,0.00,East,95,3.5,3.5,96,0.03,CLR,CLR,0.05,WeatherDisplay:10.37,2013-02-19 23:56:00,
2013-02-19 19:01:00,42.5,41.4,0.00,East,95,0.0,0.0,96,0.02,CLR,CLR,0.05,WeatherDisplay:10.37,2013-02-20 00:01:00,
2013-02-19 19:07:00,42.5,41.4,0.00,East,95,0.0,0.0,96,0.02,CLR,CLR,0.05,WeatherDisplay:10.37,2013-02-20 00:07:00,
2013-02-19 19:12:00,42.5,41.4,0.00,ENE,64,0.0,0.0,96,0.01,CLR,CLR,0.05,WeatherDisplay:10.37,2013-02-20 00:12:00,
2013-02-19 19:17:00,42.4,41.3,0.00,East,85,4.6,4.6,96,0.01,CLR,CLR,0.05,WeatherDisplay:10.37,2013-02-20 00:17:00,
2013-02-19 19:23:00,42.5,41.7,0.00,NNE,31,2.3,2.3,97,0.00,CLR,CLR,0.05,WeatherDisplay:10.37,2013-02-20 00:23:00,
2013-02-19 19:28:00,42.4,41.6,0.00,NNE,31,0.0,0.0,97,0.00,CLR,CLR,0.05,WeatherDisplay:10.37,2013-02-20 00:28:00,
2013-02-19 19:33:00,42.4,41.6,0.00,ENE,68,1.9,1.9,97,0.00,CLR,CLR,0.05,WeatherDisplay:10.37,2013-02-20 00:33:00,
2013-02-19 19:39:00,42.5,41.7,0.00,ENE,76,2.3,2.3,97,0.00,CLR,CLR,0.05,WeatherDisplay:10.37,2013-02-20 00:39:00,
2013-02-19 19:44:00,42.5,41.7,0.00,South,179,1.2,1.2,97,0.00,CLR,CLR,0.05,WeatherDisplay:10.37,2013-02-20 00:44:00,
2013-02-19 19:49:00,42.5,42.0,0.00,West,261,2.3,2.3,98,0.00,CLR,CLR,0.05,WeatherDisplay:10.37,2013-02-20 00:49:00,
2013-02-19 19:55:00,42.7,42.2,0.00,NNE,16,1.2,1.2,98,0.00,CLR,CLR,0.05,WeatherDisplay:10.37,2013-02-20 00:55:00,
2013-02-19 20:00:00,42.7,42.2,0.00,NNE,16,0.0,0.0,98,0.00,CLR,CLR,0.05,WeatherDisplay:10.37,2013-02-20 01:00:00,
2013-02-19 20:05:00,42.7,42.2,0.00,NNE,16,0.0,0.0,98,0.00,CLR,CLR,0.05,WeatherDisplay:10.37,2013-02-20 01:05:00,
2013-02-19 20:10:00,42.8,42.3,0.00,NNE,28,0.0,0.0,98,0.00,CLR,CLR,0.05,WeatherDisplay:10.37,2013-02-20 01:10:00,
2013-02-19 20:15:00,42.7,42.2,0.00,SSW,203,0.0,0.0,98,0.00,CLR,CLR,0.05,WeatherDisplay:10.37,2013-02-20 01:15:00,
2013-02-19 20:21:00,42.9,42.6,0.00,NE,48,0.0,0.0,99,0.00,CLR,CLR,0.05,WeatherDisplay:10.37,2013-02-20 01:21:00,
2013-02-19 20:26:00,42.9,42.6,0.00,NNE,16,0.0,0.0,99,0.00,CLR,CLR,0.05,WeatherDisplay:10.37,2013-02-20 01:26:00,
2013-02-19 20:31:00,43.0,42.7,0.00,North,11,0.0,0.0,99,0.00,CLR,CLR,0.05,WeatherDisplay:10.37,2013-02-20 01:31:00,
2013-02-19 20:36:00,43.0,42.7,0.00,North,11,0.0,0.0,99,0.01,RA,RA,0.06,WeatherDisplay:10.37,2013-02-20 01:36:00,
2013-02-19 20:41:00,43.1,42.8,0.00,North,11,0.0,0.0,99,0.01,RA,RA,0.06,WeatherDisplay:10.37,2013-02-20 01:41:00,
2013-02-19 20:46:00,43.2,42.9,0.00,SSE,160,1.2,1.2,99,0.01,CLR,CLR,0.06,WeatherDisplay:10.37,2013-02-20 01:46:00,
2013-02-19 20:51:00,43.0,42.7,0.00,NE,42,0.0,0.0,99,0.02,RA,RA,0.07,WeatherDisplay:10.37,2013-02-20 01:51:00,
2013-02-19 20:56:00,43.0,42.7,0.00,East,92,3.5,3.5,99,0.02,RA,RA,0.07,WeatherDisplay:10.37,2013-02-20 01:56:00,
2013-02-19 21:02:00,43.0,42.7,0.00,NE,40,1.2,0.0,99,0.02,CLR,CLR,0.07,WeatherDisplay:10.37,2013-02-20 02:02:00,
2013-02-19 21:07:00,43.2,42.9,0.00,NE,40,0.0,0.0,99,0.02,CLR,CLR,0.07,WeatherDisplay:10.37,2013-02-20 02:07:00,
2013-02-19 21:12:00,43.0,42.7,0.00,East,97,2.3,2.3,99,0.02,CLR,CLR,0.07,WeatherDisplay:10.37,2013-02-20 02:12:00,
2013-02-19 21:17:00,43.1,42.8,0.00,SSW,205,2.3,2.3,99,0.02,CLR,CLR,0.07,WeatherDisplay:10.37,2013-02-20 02:17:00,
2013-02-19 21:23:00,43.1,43.1,0.00,ESE,116,0.0,0.0,100,0.02,CLR,CLR,0.07,WeatherDisplay:10.37,2013-02-20 02:23:00,
2013-02-19 21:28:00,43.2,43.2,0.00,NE,35,0.5,0.5,100,0.02,CLR,CLR,0.07,WeatherDisplay:10.37,2013-02-20 02:28:00,
2013-02-19 21:33:00,43.3,43.3,0.00,West,265,2.3,2.3,100,0.02,CLR,CLR,0.07,WeatherDisplay:10.37,2013-02-20 02:33:00,
2013-02-19 21:38:00,43.3,43.3,0.00,ESE,102,0.0,0.0,100,0.01,CLR,CLR,0.07,WeatherDisplay:10.37,2013-02-20 02:38:00,
2013-02-19 21:43:00,43.2,43.2,0.00,SW,222,1.2,0.0,100,0.01,CLR,CLR,0.07,WeatherDisplay:10.37,2013-02-20 02:43:00,
2013-02-19 21:48:00,43.2,43.2,0.00,SSW,198,0.0,0.0,100,0.01,RA,RA,0.08,WeatherDisplay:10.37,2013-02-20 02:48:00,
2013-02-19 21:54:00,43.2,42.9,0.00,SSW,198,0.0,0.0,99,0.01,RA,RA,0.08,WeatherDisplay:10.37,2013-02-20 02:54:00,
2013-02-19 21:59:00,43.2,42.9,0.00,South,188,0.0,0.0,99,0.01,CLR,CLR,0.08,WeatherDisplay:10.37,2013-02-20 02:59:00,
2013-02-19 22:04:00,43.1,42.8,0.00,West,275,2.3,2.3,99,0.01,CLR,CLR,0.08,WeatherDisplay:10.37,2013-02-20 03:04:00,
2013-02-19 22:09:00,43.0,42.7,0.00,West,271,3.5,3.5,99,0.01,CLR,CLR,0.08,WeatherDisplay:10.37,2013-02-20 03:09:00,
2013-02-19 22:14:00,43.0,42.7,0.00,WSW,246,4.6,4.6,99,0.01,CLR,CLR,0.08,WeatherDisplay:10.37,2013-02-20 03:14:00,
2013-02-19 22:19:00,43.0,43.0,0.00,SW,234,1.2,0.0,100,0.01,CLR,CLR,0.08,WeatherDisplay:10.37,2013-02-20 03:19:00,
2013-02-19 22:24:00,43.0,43.0,0.00,SW,236,0.0,0.0,100,0.01,CLR,CLR,0.08,WeatherDisplay:10.37,2013-02-20 03:24:00,
2013-02-19 22:30:00,43.0,42.7,0.00,SW,236,0.0,0.0,99,0.01,CLR,CLR,0.08,WeatherDisplay:10.37,2013-02-20 03:30:00,
2013-02-19 22:35:00,42.9,42.6,0.00,SW,215,1.2,1.2,99,0.01,CLR,CLR,0.08,WeatherDisplay:10.37,2013-02-20 03:35:00,
2013-02-19 22:40:00,42.7,42.4,0.00,SW,215,0.0,0.0,99,0.01,CLR,CLR,0.08,WeatherDisplay:10.37,2013-02-20 03:40:00,
2013-02-19 22:46:00,42.7,42.4,0.00,SW,215,0.0,0.0,99,0.00,CLR,CLR,0.08,WeatherDisplay:10.37,2013-02-20 03:46:00,
2013-02-19 22:51:00,42.4,41.9,0.00,SW,215,0.0,0.0,98,0.00,CLR,CLR,0.08,WeatherDisplay:10.37,2013-02-20 03:51:00,
2013-02-19 22:56:00,42.4,42.1,0.00,SW,216,0.0,0.0,99,0.00,CLR,CLR,0.08,WeatherDisplay:10.37,2013-02-20 03:56:00,
2013-02-19 23:02:00,42.4,42.1,0.00,SE,131,0.0,0.7,99,0.00,CLR,CLR,0.08,WeatherDisplay:10.37,2013-02-20 04:02:00,
2013-02-19 23:07:00,42.3,42.0,0.00,WSW,246,3.7,3.7,99,0.00,CLR,CLR,0.08,WeatherDisplay:10.37,2013-02-20 04:07:00,
2013-02-19 23:12:00,42.4,42.1,0.00,SSE,158,0.0,0.0,99,0.00,CLR,CLR,0.08,WeatherDisplay:10.37,2013-02-20 04:12:00,
2013-02-19 23:17:00,42.3,42.0,0.00,SW,220,2.3,2.3,99,0.00,CLR,CLR,0.08,WeatherDisplay:10.37,2013-02-20 04:17:00,
2013-02-19 23:22:00,42.3,42.0,0.00,ENE,75,0.6,0.6,99,0.00,CLR,CLR,0.08,WeatherDisplay:10.37,2013-02-20 04:22:00,
2013-02-19 23:28:00,42.2,41.9,0.00,SSE,147,2.3,2.3,99,0.00,CLR,CLR,0.08,WeatherDisplay:10.37,2013-02-20 04:28:00,
2013-02-19 23:33:00,42.2,41.9,0.00,West,261,5.8,5.8,99,0.00,CLR,CLR,0.08,WeatherDisplay:10.37,2013-02-20 04:33:00,
2013-02-19 23:38:00,42.2,41.9,0.00,West,280,1.2,1.2,99,0.00,CLR,CLR,0.08,WeatherDisplay:10.37,2013-02-20 04:38:00,
2013-02-19 23:44:00,42.1,41.8,0.00,NW,306,3.5,3.5,99,0.00,CLR,CLR,0.08,WeatherDisplay:10.37,2013-02-20 04:44:00,
2013-02-19 23:49:00,42.1,41.8,0.00,WSW,257,6.9,6.9,99,0.00,CLR,CLR,0.08,WeatherDisplay:10.37,2013-02-20 04:49:00,
2013-02-19 23:54:00,42.0,41.7,0.00,West,272,2.3,2.3,99,0.00,CLR,CLR,0.08,WeatherDisplay:10.37,2013-02-20 04:54:00,
2013-02-19 23:59:00,41.9,41.6,0.00,South,185,3.2,3.2,99,0.00,CLR,CLR,0.08,WeatherDisplay:10.37,2013-02-20 04:59:00,